Weather History for KBLH - June, 2013

Change the Weather History Date:

Thursday, June 13, 2013

  Actual Average Record
Temperature  
Mean Temperature 92 °F -  
Max Temperature 108 °F 101 °F 113 °F (1979)
Min Temperature 77 °F 70 °F 57 °F (1998)
Cooling Degree Days 27    
Growing Degree Days 42 (Base 50)    
Moisture  
Dew Point 40 °F    
Average Humidity 18    
Maximum Humidity 36    
Minimum Humidity 6    
Precipitation  
Precipitation 0.00 in - - ()
Sea Level Pressure  
Sea Level Pressure 29.74 in    
Wind  
Wind Speed 8 mph (South)    
Max Wind Speed 16 mph    
Max Gust Speed 17 mph    
Visibility 10 miles    
Events      
Averages and records for this station are not official NWS values.
T = Trace of Precipitation, MM = Missing Value Source: NWS Daily Summary

Daily Weather History Graph

Daily Weather History Graph

Search for Another Location

Airport or City:

Trip Planner

Search our weather history database for the weather conditions in past years. The results will help you decide how hot, cold, wet, or windy it might be!

Date:

Astronomy

Jun. 13, 2013 Rise Set
Actual Time 5:28 AM PDT 7:50 PM PDT
Civil Twilight 4:59 AM PDT 8:19 PM PDT
Nautical Twilight 4:23 AM PDT 8:54 PM PDT
Astronomical Twilight 3:44 AM PDT 9:33 PM PDT
Moon 9:57 AM PDT (6/13) 11:11 PM PDT (6/13)
Length of Visible Light 15h 19m
Length of Day
14h 22m
Waxing Crescent, 22% of the Moon is Illuminated
Jun 13
Waxing Crescent
Jun 16
First Quarter
Jun 23
Full
Jun 29
Last Quarter
Jul 8
New

Hourly Weather History & Observations

Time (PDT) Temp. Dew Point Humidity Pressure Visibility Wind Dir Wind Speed Gust Speed Precip Events Conditions
12:52 AM 87.1 °F 48.0 °F 26% 29.74 in 10.0 mi South 10.4 mph - N/A   Clear
1:52 AM 84.9 °F 48.0 °F 28% 29.73 in 10.0 mi South 9.2 mph - N/A   Clear
2:52 AM 81.0 °F 48.9 °F 33% 29.73 in 10.0 mi SSE 5.8 mph - N/A   Clear
3:52 AM 79.0 °F 46.9 °F 32% 29.74 in 10.0 mi SE 4.6 mph - N/A   Clear
4:52 AM 77.0 °F 48.0 °F 36% 29.77 in 10.0 mi SW 3.5 mph - N/A   Clear
5:52 AM 82.0 °F 45.0 °F 27% 29.79 in 10.0 mi WSW 3.5 mph - N/A   Clear
6:52 AM 84.0 °F 39.0 °F 20% 29.81 in 10.0 mi SSW 6.9 mph - N/A   Clear
7:52 AM 84.9 °F 46.0 °F 26% 29.83 in 10.0 mi NNE 5.8 mph - N/A   Clear
8:52 AM 90.0 °F 44.1 °F 20% 29.83 in 10.0 mi WNW 3.5 mph - N/A   Clear
9:52 AM 93.9 °F 42.1 °F 17% 29.83 in 10.0 mi Calm Calm - N/A   Clear
10:52 AM 97.0 °F 41.0 °F 14% 29.83 in 10.0 mi East 4.6 mph - N/A   Clear
11:52 AM 99.0 °F 39.0 °F 13% 29.82 in 10.0 mi SSE 9.2 mph - N/A   Clear
12:52 PM 102.0 °F 39.9 °F 12% 29.80 in 10.0 mi SSE 10.4 mph - N/A   Clear
1:52 PM 102.0 °F 37.0 °F 11% 29.77 in 10.0 mi SE 8.1 mph 17.3 mph N/A   Clear
2:52 PM 105.1 °F 33.1 °F 8% 29.74 in 10.0 mi SSE 12.7 mph - N/A   Clear
3:52 PM 106.0 °F 33.1 °F 8% 29.71 in 10.0 mi SSE 9.2 mph - N/A   Clear
4:52 PM 107.1 °F 25.0 °F 6% 29.68 in 10.0 mi SSE 16.1 mph - N/A   Clear
5:52 PM 105.1 °F 33.1 °F 8% 29.66 in 10.0 mi SSE 13.8 mph - N/A   Clear
6:52 PM 105.1 °F 37.9 °F 10% 29.66 in 10.0 mi SSW 9.2 mph - N/A   Clear
7:52 PM 102.0 °F 27.0 °F 7% 29.66 in 10.0 mi SW 13.8 mph - N/A   Clear
8:52 PM 98.1 °F 32.0 °F 10% 29.67 in 10.0 mi SW 9.2 mph - N/A   Clear
9:52 PM 91.9 °F 36.0 °F 14% 29.69 in 10.0 mi SSE 5.8 mph - N/A   Clear
10:52 PM 91.0 °F 33.1 °F 13% 29.69 in 10.0 mi Calm Calm - N/A   Clear
11:52 PM 89.1 °F 46.9 °F 23% 29.70 in 10.0 mi South 12.7 mph - N/A   Clear